Miamisburg, OH

5:14 PM EST on February 26, 2017 (GMT -0500)
Dayton-Wright Brothers

Weather History for KMGY - June, 2014

Change the Weather History Date:

Friday, June 6, 2014

  Actual Average (KFFO) Record (KFFO)
Temperature  
Mean Temperature 66 °F -  
Max Temperature 78 °F 75 °F 93 °F (1999)
Min Temperature 55 °F 56 °F 33 °F (1998)
Cooling Degree Days 1    
Growing Degree Days 16 (Base 50)    
Moisture  
Dew Point 49 °F    
Average Humidity 54    
Maximum Humidity 81    
Minimum Humidity 33    
Precipitation  
Precipitation 0.00 in - - ()
Sea Level Pressure  
Sea Level Pressure 29.98 in    
Wind  
Wind Speed 4 mph (ESE)    
Max Wind Speed 7 mph    
Max Gust Speed -    
Visibility 10 miles    
Events      
Averages and records for this station are not official NWS values.
T = Trace of Precipitation, MM = Missing Value Source: NWS Daily Summary

Daily Weather History Graph

Daily Weather History Graph

Search for Another Location

Airport or City:

Trip Planner

Search our weather history database for the weather conditions in past years. The results will help you decide how hot, cold, wet, or windy it might be!

Date:

Astronomy

Jun. 06, 2014 Rise Set
Actual Time 6:09 AM EDT 9:01 PM EDT
Civil Twilight 5:37 AM EDT 9:33 PM EDT
Nautical Twilight 4:57 AM EDT 10:14 PM EDT
Astronomical Twilight 4:10 AM EDT 11:01 PM EDT
Moon 2:21 PM EDT (6/6) 1:59 AM EDT (6/6)
Length of Visible Light 15h 56m
Length of Day
14h 52m
First Quarter, 58% of the Moon is Illuminated
Jun 6
First Quarter
Jun 13
Full
Jun 19
Last Quarter
Jun 27
New
Jul 5
First Quarter

Hourly Weather History & Observations

Time (EDT) Temp. Dew Point Humidity Pressure Visibility Wind Dir Wind Speed Gust Speed Precip Events Conditions
12:53 AM 57.9 °F 52.0 °F 81% 29.97 in 10.0 mi ENE 3.5 mph - N/A   Clear
1:53 AM 61.0 °F 48.9 °F 64% 29.94 in 10.0 mi East 6.9 mph - N/A   Clear
2:53 AM 60.1 °F 48.9 °F 67% 29.94 in 10.0 mi East 6.9 mph - N/A   Clear
3:53 AM 59.0 °F 48.9 °F 69% 29.95 in 10.0 mi ESE 3.5 mph - N/A   Clear
4:53 AM 57.9 °F 48.9 °F 72% 29.96 in 10.0 mi SE 4.6 mph - N/A   Clear
5:53 AM 55.0 °F 48.9 °F 80% 29.99 in 10.0 mi Calm Calm - N/A   Clear
6:53 AM 57.0 °F 50.0 °F 77% 30.01 in 10.0 mi Calm Calm - N/A   Clear
7:53 AM 62.1 °F 53.1 °F 72% 30.00 in 10.0 mi Calm Calm - N/A   Clear
8:53 AM 66.9 °F 50.0 °F 54% 30.00 in 10.0 mi SSE 3.5 mph - N/A   Clear
9:53 AM 70.0 °F 50.0 °F 49% 30.02 in 10.0 mi East 6.9 mph - N/A   Clear
11:53 AM 72.0 °F 46.9 °F 41% 30.01 in 10.0 mi Variable 5.8 mph - N/A   Clear
12:53 PM 73.9 °F 48.0 °F 40% 30.01 in 10.0 mi East 5.8 mph - N/A   Clear
1:53 PM 73.9 °F 46.0 °F 37% 30.00 in 10.0 mi Variable 3.5 mph - N/A   Clear
2:53 PM 75.9 °F 48.0 °F 37% 29.99 in 10.0 mi ENE 6.9 mph - N/A   Clear
3:53 PM 75.9 °F 45.0 °F 33% 29.99 in 10.0 mi Calm Calm - N/A   Clear
5:53 PM 77.0 °F 46.0 °F 33% 29.96 in 10.0 mi Calm Calm - N/A   Clear
6:53 PM 77.0 °F 46.9 °F 34% 29.96 in 10.0 mi East 3.5 mph - N/A   Clear
7:53 PM 75.0 °F 48.0 °F 38% 29.97 in 10.0 mi ESE 5.8 mph - N/A   Clear
8:53 PM 71.1 °F 48.9 °F 45% 29.99 in 10.0 mi Calm Calm - N/A   Clear
9:53 PM 69.1 °F 48.9 °F 49% 29.99 in 10.0 mi Calm Calm - N/A   Clear
10:53 PM 66.9 °F 51.1 °F 57% 30.00 in 10.0 mi Calm Calm - N/A   Clear
11:53 PM 63.0 °F 50.0 °F 63% 30.01 in 10.0 mi Calm Calm - N/A   Clear